Hundvaag 1 weather for Jan 1988
Month no. 7
Obs.
Da.
Temp. Dew Point Precip. Wind
Speed
Wind gusts Cloud cover Press. Humidity Wind dir. Sunny OPT
01.01.1988 6,8   9,0                
02.01.1988 6,9   22,9                
03.01.1988 2,9   3,4             1  
04.01.1988 2,9   14,0                
05.01.1988 2,1   4,2             1  
06.01.1988 2,8   8,4                
07.01.1988 3,2   2,0             1  
08.01.1988 -0,4   0,0                
09.01.1988 5,8   0,0                
10.01.1988 6,3   12,2             1  
11.01.1988 3,5   1,8                
12.01.1988 3,1   8,2                
13.01.1988 5,6   8,8                
14.01.1988 6,6   9,7                
15.01.1988 4,9   19,0                
16.01.1988 4,8   9,5                
17.01.1988 4,1   1,6                
18.01.1988 4,6   3,8                
19.01.1988 1,2   15,5                
20.01.1988 6,3   4,7                
21.01.1988 5,4   4,2             1  
22.01.1988 1,2   11,3                
23.01.1988 0,4   3,1             1  
24.01.1988 0,7   3,1             1  
25.01.1988 2,0   2,1                
26.01.1988 4,3   1,8                
27.01.1988 1,8   1,0             1  
28.01.1988 -3,0   0,0             1  
29.01.1988 4,6   0,0                
30.01.1988 2,0   0,0             1  
31.01.1988 0,7   0,0             1  
Avrg/Sum 3,4   185,3             11